Tracking 19792 objects as of 15-Jul-2019
HD Live streaming from Space Station
objects crossing your sky now

FENGYUN 1C DEB

Track FENGYUN 1C DEB now!
10-day predictions


NORAD ID: 31094
Int'l Code: 1999-025BGQ
Perigee: 839.3 km
Apogee: 1,012.1 km
Inclination: 99.0 °
Period: 103.4 minutes
Semi major axis: 7296 km
RCS: 0.0135 m2 (small)
Launch date: May 10, 1999
Source: People's Republic of China (PRC)
Launch site: Taiyaun Space Center, China (TSC)

Note: This is SATELLITE DEBRIS
aabbcc
Your satellite tracking list
Your tracking list is empty




NASA's NSSDC Master Catalog

Two Line Element Set (TLE):
1 31094U 99025BGQ 19195.70248399  .00000281  00000-0  23647-3 0  9995
2 31094  99.0226  96.7190 0118391   8.5959 351.7193 13.92870581630167
Source of the keplerian elements: AFSPC